[[{"header":{"parameterUnit":"m.s-1","parameterCategory":1,"la1":30.2991,"la2":30.254,"lo1":-89.0895,"lo2":-89.0444,"dy":0.0017,"dx":0.0017,"nx":28,"ny":28,"refTime":"2025-04-21T21:00:00:Z","depth":0,"parameterNumber":2,"parameterNumberName":"U-component_of_WINDS"},"data":[0,0,0,0,0,0,0,0,0,0,0,0,0,0,0,0,0,0,0,0,0,0,0,0,0,0,0,0,0,0,0,0,0,0,0,0,0,0,0,0,0,0,0,0,0,0,0,0,0,0,0,0,0,0,0,0,0,0,-1.9,-1.9,0,-1.8957,-1.8956,-1.8956,-1.8918,-1.8918,-1.8917,-1.8917,-1.8872,-1.8872,-1.8871,0,0,0,0,0,0,0,0,0,0,0,0,0,-1.9053,-1.9052,-1.9,-1.9,-1.8999,-1.8957,-1.8956,-1.8956,-1.8918,-1.8918,-1.8917,-1.8917,-1.8873,-1.8872,-1.8871,0,0,0,0,0,0,0,0,0,0,0,0,0,-1.9022,-1.9052,-1.9,-1.8976,-1.8973,-1.8957,-1.8956,-1.8955,-1.8918,-1.8918,-1.8917,-1.8916,-1.8873,-1.8872,-1.8871,-1.8876,0,0,-1.8867,-1.8867,0,0,0,0,0,0,0,0,-1.9023,-1.902,-1.898,-1.8977,-1.8974,-1.8942,-1.8958,-1.8929,-1.8918,-1.8939,-1.8917,-1.8916,-1.8896,-1.8893,-1.8886,-1.8874,-1.8872,-1.8867,-1.8866,-1.8866,-1.8865,0,0,0,0,0,0,0,-1.9026,-1.9021,-1.8983,-1.8979,-1.8976,-1.8967,-1.8962,-1.8952,-1.8922,-1.8937,-1.8934,-1.893,-1.8895,-1.8887,-1.8885,-1.8871,-1.8867,-1.8866,-1.8865,-1.8865,-1.8862,-1.8863,0,0,0,0,0,0,-1.9031,-1.9023,-1.8984,-1.8982,-1.8998,-1.8966,-1.8961,-1.8953,-1.8922,-1.8916,-1.893,-1.8928,-1.889,-1.8886,-1.8883,-1.8887,-1.8866,-1.8865,-1.8864,-1.8861,-1.8862,-1.8863,0,0,0,0,0,0,-1.9033,-1.9028,-1.8986,-1.9002,-1.8996,-1.8966,-1.8958,-1.8953,-1.8945,-1.8916,-1.8911,-1.8929,-1.8889,-1.8885,-1.8878,-1.8885,-1.8864,-1.8863,-1.8861,-1.8862,-1.8863,-1.8896,0,0,0,0,0,0,-1.9034,-1.9029,-1.903,-1.9002,-1.8995,-1.8982,-1.8958,-1.8952,-1.8943,-1.894,-1.8913,-1.8908,-1.8888,-1.888,-1.8877,-1.8883,-1.8862,-1.886,-1.8861,-1.8862,-1.8894,-1.8898,-1.8902,0,0,0,0,0,-1.9036,-1.9042,-1.9031,-1.9026,-1.8996,-1.8982,-1.8978,-1.8955,-1.8944,-1.8945,-1.8927,-1.8909,-1.8886,-1.888,-1.8876,-1.8882,-1.8859,-1.8861,-1.8862,-1.8893,-1.8897,-1.8902,0,0,0,0,0,0,-1.9071,-1.9037,-1.9025,-1.9021,-1.9005,-1.8976,-1.8977,-1.8961,-1.8947,-1.8945,-1.8917,-1.8911,-1.8907,-1.8894,-1.8889,-1.8886,-1.887,-1.8871,-1.8895,-1.8899,-1.8902,-1.8905,-1.8861,0,0,0,0,0,-1.9079,-1.907,-1.9041,-1.904,-1.9033,-1.9006,-1.8999,-1.8983,-1.8965,-1.8958,-1.8939,-1.8923,-1.8911,-1.8905,-1.8893,-1.8893,-1.8886,-1.8895,-1.8899,-1.8902,-1.8903,-1.8902,-1.8906,-1.8868,-1.8868,-1.8868,0,0,-1.9093,-1.9074,-1.907,-1.9047,-1.9032,-1.9024,-1.9001,-1.8993,-1.8987,-1.8957,-1.8949,-1.8935,-1.8915,-1.8912,-1.891,-1.8901,-1.8912,-1.8904,-1.8907,-1.8905,-1.8904,-1.8908,-1.8911,-1.8869,-1.8868,-1.8868,0,0,-1.9116,-1.9101,-1.9098,-1.9085,-1.9063,-1.9046,-1.9045,-1.9019,-1.9008,-1.9,-1.8978,-1.8971,-1.8952,-1.8939,-1.8929,-1.8949,-1.8932,-1.8946,-1.8964,-1.8964,-1.8967,-1.897,-1.8977,-1.8979,-1.8947,-1.8947,-1.8947,0,-1.9137,-1.9124,-1.9099,-1.9093,-1.9084,-1.9057,-1.9055,-1.9043,-1.9018,-1.9013,-1.9003,-1.898,-1.8964,-1.8958,-1.8963,-1.8956,-1.8955,-1.8948,-1.8969,-1.8971,-1.8973,-1.8979,-1.8982,-1.8949,-1.8949,-1.8948,-1.8948,0,-1.9151,-1.9142,-1.9143,-1.9121,-1.9111,-1.9107,-1.9083,-1.9077,-1.9062,-1.9045,-1.9038,-1.9019,-1.9003,-1.9,-1.8985,-1.8992,-1.8987,-1.8974,-1.8957,-1.8979,-1.8984,-1.8986,-1.8951,-1.8951,-1.895,-1.895,0,0,-1.9194,-1.9158,-1.9159,-1.9148,-1.9123,-1.9116,-1.9111,-1.9096,-1.9091,-1.9076,-1.9071,-1.9057,-1.9044,-1.9034,-1.9017,-1.9017,-1.9034,-1.9004,-1.9003,-1.901,-1.9041,-1.905,-1.9054,-1.9023,-1.9024,-1.9024,-1.9042,0,-1.9212,-1.9201,-1.9179,-1.9176,-1.9167,-1.9142,-1.9138,-1.9123,-1.9108,-1.9099,-1.9083,-1.9073,-1.9057,-1.9051,-1.905,-1.9032,-1.904,-1.9031,-1.9019,-1.9019,-1.9024,-1.9056,-1.9066,-1.9084,-1.9044,-1.9045,-1.9045,0,-1.9232,-1.9218,-1.9213,-1.9189,-1.9185,-1.9181,-1.9166,-1.9157,-1.914,-1.9129,-1.9118,-1.91,-1.9094,-1.908,-1.9072,-1.9066,-1.906,-1.9051,-1.9051,-1.9049,-1.9032,-1.9054,-1.909,-1.9092,-1.9048,-1.9048,-1.9047,0,-1.9263,-1.9244,-1.9238,-1.923,-1.9202,-1.92,-1.9188,-1.917,-1.9162,-1.9149,-1.9143,-1.913,-1.9122,-1.9112,-1.9091,-1.9083,-1.9086,-1.9069,-1.9077,-1.9077,-1.9078,-1.9078,-1.9112,-1.9075,-1.9075,-1.9075,-1.9075,0,-1.9286,-1.9284,-1.9252,-1.9248,-1.9246,-1.9222,-1.922,-1.9206,-1.919,-1.9184,-1.9162,-1.9156,-1.913,-1.9122,-1.9106,-1.9101,-1.9098,-1.909,-1.9085,-1.9091,-1.9092,-1.9086,-1.9084,-1.9076,-1.9076,-1.9075,-1.9075,0,-1.932,-1.9298,-1.9291,-1.9265,-1.9258,-1.9258,-1.9236,-1.9232,-1.9216,-1.9209,-1.9206,-1.9181,-1.917,-1.9149,-1.9133,-1.9122,-1.9122,-1.9114,-1.9127,-1.9125,-1.9133,-1.9132,-1.9164,-1.9167,-1.9129,-1.913,-1.913,0,-1.9336,-1.9333,-1.9307,-1.9301,-1.929,-1.9281,-1.9273,-1.925,-1.9242,-1.9223,-1.9221,-1.9209,-1.9198,-1.9183,-1.9164,-1.9151,-1.9143,-1.9155,-1.9141,-1.9147,-1.9143,-1.9143,-1.9143,-1.9158,-1.9159,-1.9159,-1.9159,0,-1.9365,-1.9355,-1.9344,-1.9329,-1.932,-1.9308,-1.9294,-1.9291,-1.9265,-1.9258,-1.9246,-1.9238,-1.9222,-1.921,-1.9195,-1.9183,-1.9167,-1.9164,-1.9165,-1.9171,-1.9178,-1.9174,-1.9135,-1.9163,-1.9163,-1.9163,-1.9162,-1.9162,-1.939,-1.9387,-1.9369,-1.9357,-1.9345,-1.9333,-1.9328,-1.9312,-1.9302,-1.9286,-1.9273,-1.9263,-1.9246,-1.9225,-1.9214,-1.9207,-1.9199,-1.92,-1.92,-1.9201,-1.9203,-1.918,-1.9204,-1.9204,-1.9204,-1.9204,-1.9203,0,-1.9419,-1.9406,-1.9396,-1.9377,-1.9368,-1.9354,-1.9338,-1.9332,-1.9324,-1.9309,-1.9299,-1.9286,-1.9275,-1.9256,-1.9243,-1.9241,-1.9233,-1.9238,-1.9238,-1.9235,-1.9211,-1.9212,-1.9245,-1.9245,-1.9245,-1.9245,-1.9245,-1.9245,-1.9433,-1.9427,-1.9414,-1.9402,-1.9389,-1.9379,-1.9371,-1.9361,-1.9349,-1.9336,-1.9326,-1.9313,-1.9297,-1.9283,-1.9273,-1.9267,-1.9263,-1.9271,-1.9263,-1.9241,-1.9237,-1.9233,-1.9233,-1.927,-1.927,-1.9288,-1.9288,-1.9288]},{"header":{"parameterUnit":"m.s-1","parameterCategory":1,"la1":30.2991,"la2":30.254,"lo1":-89.0895,"lo2":-89.0444,"dy":0.0017,"dx":0.0017,"nx":28,"ny":28,"refTime":"2025-04-21T21:00:00:Z","depth":0,"parameterNumber":3,"parameterNumberName":"V-component_of_WINDS"},"data":[0,0,0,0,0,0,0,0,0,0,0,0,0,0,0,0,0,0,0,0,0,0,0,0,0,0,0,0,0,0,0,0,0,0,0,0,0,0,0,0,0,0,0,0,0,0,0,0,0,0,0,0,0,0,0,0,0,0,2.7887,2.7887,0,2.7808,2.7807,2.7806,2.779,2.779,2.7791,2.7792,2.7705,2.7702,2.7699,0,0,0,0,0,0,0,0,0,0,0,0,0,2.802,2.8018,2.7888,2.7887,2.7886,2.7808,2.7807,2.7806,2.779,2.779,2.7791,2.7792,2.7706,2.7702,2.7699,0,0,0,0,0,0,0,0,0,0,0,0,0,2.7954,2.8017,2.7888,2.7868,2.7866,2.7808,2.7807,2.7806,2.7789,2.779,2.7791,2.7792,2.7707,2.7703,2.7699,2.7654,0,0,2.7685,2.7683,0,0,0,0,0,0,0,0,2.7958,2.7949,2.7872,2.7869,2.7866,2.781,2.7822,2.7754,2.7789,2.7818,2.7792,2.7793,2.7739,2.7732,2.7715,2.7649,2.7646,2.7685,2.7682,2.768,2.7679,0,0,0,0,0,0,0,2.7962,2.7952,2.7856,2.7871,2.7867,2.7862,2.7853,2.7809,2.7774,2.7816,2.7814,2.7806,2.7737,2.7719,2.7713,2.7644,2.7685,2.7681,2.7679,2.7677,2.7538,2.7537,0,0,0,0,0,0,2.7971,2.7956,2.7858,2.7854,2.7915,2.7859,2.7849,2.7827,2.7775,2.7768,2.7805,2.7805,2.7726,2.7718,2.7709,2.7653,2.7681,2.7676,2.7674,2.7539,2.7538,2.7537,0,0,0,0,0,0,2.7974,2.7962,2.7862,2.7905,2.7891,2.7856,2.7831,2.7825,2.7807,2.7766,2.776,2.7793,2.7726,2.7716,2.7668,2.765,2.7675,2.7671,2.7541,2.7539,2.7537,2.754,0,0,0,0,0,0,2.7978,2.7964,2.7947,2.7904,2.7889,2.7823,2.7829,2.7823,2.78,2.7799,2.7753,2.7746,2.7726,2.7674,2.7664,2.7644,2.7667,2.7542,2.754,2.7538,2.7542,2.7539,2.7537,0,0,0,0,0,2.7983,2.795,2.7946,2.7935,2.7868,2.7822,2.7813,2.7792,2.7799,2.7781,2.7755,2.7748,2.7654,2.767,2.7657,2.7637,2.7543,2.754,2.7538,2.7543,2.7539,2.7537,0,0,0,0,0,0,2.7989,2.7944,2.7939,2.7892,2.7861,2.7819,2.7796,2.7789,2.7754,2.7754,2.7728,2.7718,2.7672,2.7649,2.7668,2.759,2.7599,2.7594,2.7606,2.7603,2.7601,2.7606,2.7664,0,0,0,0,0,2.7986,2.7953,2.7915,2.7877,2.7862,2.7832,2.7811,2.7798,2.7764,2.775,2.772,2.7686,2.7649,2.7625,2.7589,2.7539,2.7528,2.7518,2.7516,2.7514,2.751,2.7481,2.7477,2.7529,2.7529,2.7529,0,0,2.7977,2.7948,2.7929,2.7877,2.7852,2.7818,2.7821,2.7784,2.7758,2.7743,2.7697,2.7675,2.7635,2.7586,2.7563,2.7566,2.7493,2.7511,2.751,2.7506,2.7478,2.7473,2.7469,2.7527,2.7527,2.7528,0,0,2.7943,2.7919,2.7885,2.7859,2.7822,2.7802,2.7794,2.7753,2.7738,2.7692,2.768,2.7648,2.7585,2.7557,2.7535,2.7493,2.7484,2.7481,2.7468,2.7441,2.7436,2.7433,2.7417,2.7412,2.7477,2.7477,2.7477,0,2.7936,2.7886,2.7867,2.7832,2.7809,2.7797,2.7761,2.7737,2.7688,2.7672,2.7677,2.7598,2.757,2.7515,2.7505,2.7487,2.7476,2.7486,2.7439,2.7435,2.7431,2.7416,2.741,2.7477,2.7477,2.7477,2.7477,0,2.7879,2.7845,2.7821,2.7777,2.7752,2.7716,2.7691,2.7667,2.7657,2.7637,2.7589,2.7556,2.7513,2.7499,2.7487,2.7442,2.7445,2.7445,2.7452,2.7426,2.7411,2.7405,2.7477,2.7477,2.7477,2.7477,0,0,2.7846,2.7793,2.7785,2.7765,2.7723,2.7695,2.7659,2.7618,2.7598,2.7565,2.7534,2.7481,2.7481,2.7456,2.7441,2.7417,2.7385,2.742,2.7419,2.7414,2.7332,2.7332,2.7326,2.7381,2.7379,2.7378,2.7336,0,2.7807,2.7744,2.7726,2.7672,2.7639,2.7628,2.7596,2.7566,2.7547,2.7515,2.7493,2.7456,2.7459,2.7444,2.742,2.7395,2.7369,2.7397,2.7349,2.7348,2.7358,2.7318,2.7317,2.7278,2.733,2.7329,2.7328,0,2.7752,2.7721,2.7664,2.7627,2.7612,2.7584,2.7546,2.7517,2.7482,2.747,2.7442,2.743,2.7391,2.7402,2.7347,2.7367,2.7346,2.7331,2.7329,2.7322,2.7335,2.7309,2.7265,2.7259,2.7319,2.7319,2.732,0,2.7733,2.7676,2.7635,2.7618,2.7574,2.7554,2.7535,2.7501,2.7479,2.7445,2.7429,2.7391,2.737,2.734,2.7317,2.7327,2.7263,2.7273,2.725,2.7251,2.7236,2.7237,2.7187,2.7225,2.7225,2.7225,2.7225,0,2.769,2.7655,2.7625,2.76,2.7561,2.7541,2.7502,2.7481,2.7452,2.7422,2.7409,2.738,2.7353,2.732,2.7302,2.7259,2.7249,2.7237,2.7232,2.7237,2.7239,2.7222,2.7224,2.7224,2.7224,2.7224,2.7224,0,2.7661,2.7639,2.7594,2.7557,2.7546,2.7519,2.7486,2.746,2.7441,2.7403,2.7392,2.7361,2.7322,2.7297,2.7247,2.7235,2.7187,2.7184,2.7199,2.7197,2.7176,2.7178,2.7112,2.7102,2.7148,2.7147,2.7147,0,2.7634,2.7608,2.7569,2.7548,2.7529,2.7496,2.7473,2.7452,2.7429,2.7389,2.7367,2.7328,2.7295,2.7233,2.7205,2.7166,2.7161,2.7141,2.7155,2.7161,2.716,2.7161,2.7158,2.7138,2.7138,2.7137,2.7137,0,2.7589,2.7581,2.7549,2.7514,2.7488,2.7459,2.743,2.7413,2.7387,2.7361,2.7322,2.7297,2.7247,2.7207,2.7167,2.7145,2.7136,2.7133,2.7126,2.713,2.714,2.7134,2.7192,2.7134,2.7135,2.7135,2.7135,2.7135,2.756,2.7536,2.7505,2.7471,2.7447,2.742,2.7395,2.7373,2.7341,2.7299,2.7289,2.7248,2.7214,2.7159,2.7136,2.7103,2.7105,2.7095,2.7092,2.7089,2.7089,2.7147,2.7095,2.7095,2.7095,2.7095,2.7095,0,2.7514,2.7494,2.7463,2.7423,2.7396,2.7393,2.7361,2.7337,2.7302,2.7272,2.7241,2.7196,2.7158,2.7128,2.7089,2.7068,2.7063,2.7058,2.7058,2.7053,2.7089,2.7099,2.7063,2.7063,2.7063,2.7063,2.7063,2.7063,2.7487,2.7446,2.7434,2.7381,2.7361,2.7322,2.7304,2.7279,2.7255,2.7206,2.7175,2.7157,2.7126,2.7085,2.7049,2.7042,2.7027,2.7023,2.7014,2.7047,2.7051,2.7054,2.7063,2.702,2.702,2.6981,2.6981,2.698]}]]